Terminal Aerodrome Forecast
Issued by NWS

Home | Current Version | Previous Version | Text Only | Print | Product List | Glossary On
Versions: 1 2 3 4 5 6 7 8 9 10 11 12 13 14 15 16 17 18 19 20 21 22 23 24 25 26 27 28 29 30 31 32 33 34 35 36 37 38 39 40 41 42 43 44 45 46 47 48
000
FTUS45 KGJT 311413 AAC
TAFVEL
TAF AMD
KVEL 311413Z 3114/0112 00000KT 6SM BR VCSH SCT003 OVC025
     FM311600 05002KT 2SM BR OVC010
     FM311900 VRB03KT 4SM BR OVC015
     FM010100 30003KT P6SM VCFG SCT015=

USA.gov is the U.S. government's official web portal to all federal, state and local government web resources and services.